Tracking 28514 objects as of 25-Feb-2024
HD Live streaming from Space Station
objects crossing your sky now

STARLINK-4104

Track STARLINK-4104 now!
10-day predictions
STARLINK-4104 is classified as:


NORAD ID: 53163
Int'l Code: 2022-083AH
Perigee: 546.0 km
Apogee: 547.8 km
Inclination: 53.2 °
Period: 95.4 minutes
Semi major axis: 6917 km
RCS: Unknown
Launch date: July 17, 2022
Source: United States (US)
Launch site: AIR FORCE EASTERN TEST RANGE (AFETR)
Your satellite tracking list
Your tracking list is empty




NASA's NSSDC Master Catalog

Two Line Element Set (TLE):
1 53163U 22083AH  24055.82904255  .00001255  00000-0  96931-4 0  9999
2 53163  53.2158 263.5884 0001328  84.5590 275.5554 15.08837888 89067
Source of the keplerian elements: AFSPC